Regional Weather Roundup
Issued by NWS

Home | Current Version | Previous Version | Text Only | Print | Product List | Glossary Off
Versions: 1 2 3 4 5 6 7 8 9 10 11 12 13 14 15 16 17 18 19 20 21 22 23 24 25 26 27 28 29 30 31 32 33 34 35 36 37 38 39 40 41 42 43 44 45 46 47 48 49 50

000
ASUS43 KLSX 220607
RWRMO

WEATHER SUMMARY FOR MISSOURI
NATIONAL WEATHER SERVICE SPRINGFIELD MO
100 AM CDT MON SEP 22 2014

NOTE: "FAIR" INDICATES FEW OR NO CLOUDS BELOW 12,000 FEET WITH NO
       SIGNIFICANT WEATHER AND/OR OBSTRUCTIONS TO VISIBILITY.
       CURRENT SKY AND/OR WEATHER CONDITIONS ARE NOT AVAILABLE FOR
       CHILLICOTHE AND FARMINGTON.

MOZ001>031-035>038-043-044-053-054-220700-
...NORTHERN AND WESTERN MISSOURI...

CITY           SKY/WX    TMP DP  RH WIND       PRES   REMARKS
KANSAS CTY INT CLEAR     56  49  77 N3        30.26R
6HR MIN TEMP:  54; 6HR MAX TEMP:  66;

KANSAS C DTWN  CLEAR     59  51  75 CALM      30.25R
6HR MIN TEMP:  57; 6HR MAX TEMP:  71;

LEE`S SUMMIT   CLEAR     57  50  77 CALM      30.26R
6HR MIN TEMP:  56; 6HR MAX TEMP:  69;

ST JOSEPH      CLEAR     50  46  86 CALM      30.26S
6HR MIN TEMP:  49; 6HR MAX TEMP:  67;

CHILLICOTHE      N/A     52  50  93 CALM      30.26R
6HR MIN TEMP:  52; 6HR MAX TEMP:  68;

KIRKSVILLE     CLEAR     52  49  89 NW5       30.24S
6HR MIN TEMP:  50; 6HR MAX TEMP:  65;


$$
MOZ066>068-077>081-088>096-101>105-220700-
...SOUTHWEST MISSOURI...

CITY           SKY/WX    TMP DP  RH WIND       PRES   REMARKS
SPRINGFIELD    CLEAR     58  49  72 N5        30.22R
6HR MIN TEMP:  57; 6HR MAX TEMP:  69;

JOPLIN         CLEAR     59  50  72 NE3       30.24R
6HR MIN TEMP:  59; 6HR MAX TEMP:  71;


$$
MOZ032>034-039>042-045>050-055>058-069>072-220700-
...CENTRAL MISSOURI...

CITY           SKY/WX    TMP DP  RH WIND       PRES   REMARKS
COLUMBIA       CLEAR     54  50  86 N6        30.22S
6HR MIN TEMP:  54; 6HR MAX TEMP:  66;

JEFFERSON CITY CLEAR     57  50  77 NW3       30.21S
6HR MIN TEMP:  57; 6HR MAX TEMP:  70;

ROLLA          CLEAR     54  48  80 N3        30.20R
6HR MIN TEMP:  54; 6HR MAX TEMP:  66;

SEDALIA        CLEAR     56  49  77 NW3       30.23R
6HR MIN TEMP:  56; 6HR MAX TEMP:  68;

WHITEMAN AFB   CLEAR     54  50  84 N5        30.23S
OSAGE BEACH    CLEAR     57  46  67 N5        30.22R

$$
MOZ051-052-059>065-220700-
...EAST CENTRAL MISSOURI...

CITY           SKY/WX    TMP DP  RH WIND       PRES   REMARKS
ST LOUIS INTL  CLEAR     57  50  77 NW3       30.19R
6HR MIN TEMP:  57; 6HR MAX TEMP:  70;

SPIRIT OF STL  CLEAR     52  50  93 W5        30.18R
6HR MIN TEMP:  51; 6HR MAX TEMP:  68;

ST CHARLES     CLEAR     57  50  77 NW3       30.17S
6HR MIN TEMP:  57; 6HR MAX TEMP:  66;


$$
MOZ072>076-082>087-097>100-106>115-220700-
...SOUTH CENTRAL AND SOUTHEAST MISSOURI...

CITY           SKY/WX    TMP DP  RH WIND       PRES   REMARKS
CAPE GIRARDEAU CLEAR     59  51  75 N5        30.15R
6HR MIN TEMP:  59; 6HR MAX TEMP:  70;

FARMINGTON     CLEAR     57  48  72 N3        30.19R
6HR MIN TEMP:  57; 6HR MAX TEMP:  70;

POPLAR BLUFF   CLEAR     58  50  75 N5        30.14R
6HR MIN TEMP:  58; 6HR MAX TEMP:  72;

WEST PLAINS    CLEAR     57  48  72 N5        30.21R
6HR MIN TEMP:  57; 6HR MAX TEMP:  70;


$$



USA.gov is the U.S. government's official web portal to all federal, state and local government web resources and services.